Regional Weather Roundup
Issued by NWS

Home | Current Version | Previous Version | Graphics & Text | Print | Product List | Glossary On
Versions: 1 2 3 4 5 6 7 8 9 10 11 12 13 14 15 16 17 18 19 20 21 22 23 24 25 26 27 28 29 30 31 32 33 34 35 36 37 38 39 40 41 42 43 44 45 46 47 48 49 50
000
ASUS44 KMEG 182300
RWRTN
TENNESSEE HOURLY STATE WEATHER ROUNDUP
NATIONAL WEATHER SERVICE MEMPHIS TN
500 PM CST SAT NOV 18 2017

TNZ002-004-019-021-049-052-054-088>092-190000-
WEST TENNESSEE

CITY           SKY/WX    TMP DP  RH WIND       PRES   REMARKS
MEMPHIS INTL   CLOUDY    55  42  61 NW24G40   29.81R
NWS MEMPHIS      N/A     54 N/A N/A MISG        N/A
JACKSON        CLOUDY    53  44  71 NW29G39   29.75R
DYERSBURG      CLOUDY    51  41  68 NW17G24   29.80R
$$

TNZ008-025-027-028-033-062-065-066-190000-
NORTH MIDDLE TENNESSEE

CITY           SKY/WX    TMP DP  RH WIND       PRES   REMARKS
NASHVILLE      HVY RAIN  65  63  93 W14G25    29.47F FOG
CLARKSVILLE    CLOUDY    51  45  79 NW28G38   29.59R
SMYRNA         RAIN      67  62  84 S17G28    29.45F
CROSSVILLE     LGT RAIN  59  57  93 S8G16     29.57F FOG
$$

TNZ061-075-076-078-094-096-097-190000-
SOUTH MIDDLE TENNESSEE

CITY           SKY/WX    TMP DP  RH WIND       PRES   REMARKS
WINCHESTER     MOCLDY    70  59  68 SW16      29.56F
$$

TNZ017-018-042-046-047-190000-
NORTHEAST TENNESSEE

CITY           SKY/WX    TMP DP  RH WIND       PRES   REMARKS
TRI CITIES     CLOUDY    59  48  67 S3        29.60F
$$

TNZ012-013-036-069-073-074-190000-
CENTRAL EAST TENNESSEE

CITY           SKY/WX    TMP DP  RH WIND       PRES   REMARKS
KNOXVILLE      LGT RAIN  67  57  70 S21G37    29.56F
OAK RIDGE      LGT RAIN  64  59  83 VRB7G17   29.59S
$$

TNZ083-085-099-190000-
SOUTHEAST TENNESSEE

CITY           SKY/WX    TMP DP  RH WIND       PRES   REMARKS
CHATTANOOGA    CLOUDY    65  57  75 S13G23    29.62F
$$

SKY/WX REPORTED AS FAIR MEANS FEW OR NO CLOUDS BELOW
12 THOUSAND FEET.




USA.gov is the U.S. government's official web portal to all federal, state and local government web resources and services.